FW7026 Weather Reports


Display with metric or nautical units.
time (UTC)temp
F
wind
direction
speed
MPH
gust
MPH
rain 1hr
in
rain 24hr
in
rain mn
in
humidity
%
barometer
mb
20260906202849 62 326 0.0 0.0 0.00 0.05 0.05 53 1010.6
20260906202344 62 303 0.0 0.0 0.00 0.05 0.05 53 1010.6
20260906201843 62 64 0.0 0.0 0.00 0.05 0.05 52 1010.6
20260906201338 62 90 0.0 0.0 0.00 0.05 0.05 52 1010.6
20260906200833 62 312 0.0 0.0 0.00 0.05 0.05 51 1010.6
20260906200329 62 16 0.0 5.0 0.00 0.05 0.05 52 1010.6
20260906195824 62 259 0.0 0.0 0.00 0.05 0.05 54 1010.6
20260906195321 62 318 0.0 0.0 0.00 0.05 0.05 52 1010.2
20260906194816 63 118 0.0 0.0 0.00 0.05 0.05 54 1010.2
20260906194312 63 319 0.0 0.0 0.00 0.05 0.05 52 1010.2
20260906193807 63 171 0.0 0.0 0.00 0.05 0.05 53 1010.2
20260906193302 63 65 0.0 0.0 0.00 0.05 0.05 53 1010.2
20260906192758 63 173 0.0 2.0 0.00 0.05 0.05 52 1010.2
20260906192252 63 137 0.0 2.0 0.00 0.05 0.05 50 1010.2
20260906191750 64 354 0.0 0.0 0.00 0.05 0.05 53 1010.2
20260906191246 64 80 0.0 0.0 0.00 0.05 0.05 55 1010.2
20260906190740 63 219 0.0 0.0 0.00 0.05 0.05 54 1010.6
20260906190240 63 12 0.0 0.0 0.00 0.05 0.05 54 1010.2
20260906185739 62 357 0.0 0.0 0.00 0.05 0.05 55 1010.6
20260906185232 63 197 0.0 0.0 0.00 0.05 0.05 56 1010.6
20260906184727 63 249 0.0 0.0 0.00 0.05 0.05 57 1010.6
20260906184222 63 196 0.0 0.0 0.00 0.05 0.05 54 1010.6
20260906183719 63 0 0.0 0.0 0.00 0.05 0.05 53 1010.6
20260906183215 63 349 0.0 0.0 0.00 0.05 0.05 56 1010.6
20260906182714 62 165 0.0 0.0 0.00 0.05 0.05 55 1010.6
20260906182210 63 40 0.0 0.0 0.00 0.05 0.05 55 1010.6
20260906181705 64 186 0.0 0.0 0.00 0.05 0.05 55 1010.6
20260906181201 64 359 0.0 2.0 0.00 0.05 0.05 53 1010.6
20260906180655 64 202 0.0 0.0 0.00 0.05 0.05 62 1010.6
20260906180151 62 259 0.0 0.0 0.00 0.05 0.05 63 1010.6
20260906175649 61 139 0.0 0.0 0.00 0.05 0.05 63 1010.9
20260906175144 62 165 0.0 2.0 0.00 0.05 0.05 63 1010.9
20260906174642 65 350 0.0 0.0 0.00 0.05 0.05 64 1010.9
20260906174137 63 148 0.0 0.0 0.00 0.05 0.05 64 1010.9
20260906173632 63 353 0.0 0.0 0.00 0.05 0.05 64 1010.9
20260906173128 62 150 0.0 0.0 0.00 0.05 0.05 66 1010.9
20260906172627 61 334 0.0 5.0 0.00 0.05 0.05 66 1010.9
20260906172123 60 240 0.0 5.0 0.00 0.05 0.05 65 1011.2
20260906171622 61 40 0.0 0.0 0.00 0.05 0.05 66 1010.9
20260906171118 62 343 0.0 0.0 0.00 0.05 0.05 66 1011.2
20260906170614 62 216 0.0 0.0 0.00 0.05 0.05 67 1011.2
20260906170113 61 265 0.0 0.0 0.00 0.05 0.05 67 1011.2
20260906165610 61 134 0.0 0.0 0.00 0.05 0.05 67 1011.2
20260906165105 60 183 0.0 0.0 0.00 0.05 0.05 71 1011.2
20260906164604 60 32 0.0 0.0 0.00 0.05 0.05 69 1011.2
20260906164100 60 188 0.0 0.0 0.00 0.05 0.05 69 1011.2
20260906163555 60 78 0.0 0.0 0.00 0.05 0.05 71 1011.6
20260906163050 59 145 0.0 2.0 0.00 0.05 0.05 71 1011.6
20260906162548 59 317 0.0 10.0 0.00 0.05 0.05 70 1011.6
20260906162043 60 160 0.0 0.0 0.00 0.05 0.05 72 1011.2
20260906161538 59 190 0.0 0.0 0.00 0.05 0.05 73 1011.2
20260906161037 59 193 0.0 0.0 0.00 0.05 0.05 74 1011.2
20260906160536 59 44 0.0 0.0 0.00 0.05 0.05 76 1011.2
20260906160034 57 113 0.0 0.0 0.00 0.05 0.05 77 1011.6
20260906155532 57 347 0.0 0.0 0.00 0.05 0.05 78 1011.6
20260906155028 58 1 0.0 0.0 0.00 0.05 0.05 78 1011.6
20260906154524 58 184 0.0 2.0 0.00 0.05 0.05 78 1011.6
20260906154022 58 173 0.0 0.0 0.00 0.05 0.05 79 1011.6
20260906153521 58 123 0.0 0.0 0.00 0.05 0.05 79 1011.6
20260906153017 57 197 0.0 0.0 0.00 0.05 0.05 79 1011.9
20260906152510 57 330 0.0 0.0 0.00 0.05 0.05 79 1011.9
20260906152010 58 222 0.0 0.0 0.00 0.05 0.05 79 1011.9
20260906151506 57 286 0.0 0.0 0.00 0.05 0.05 79 1011.9
20260906151001 57 63 0.0 0.0 0.00 0.05 0.05 78 1011.9
20260906150456 57 164 0.0 0.0 0.00 0.05 0.05 77 1012.2
20260906144822 60 217 0.0 0.0 0.00 0.05 0.05 76 1012.2
20260906144317 60 217 0.0 0.0 0.00 0.05 0.05 76 1012.2
20260906143816 60 217 0.0 0.0 0.00 0.05 0.05 76 1012.2
20260906142124 57 211 0.0 0.0 0.00 0.05 0.05 82 1012.6
20260906141622 57 211 0.0 0.0 0.00 0.05 0.05 82 1012.6
20260906141118 57 211 0.0 0.0 0.00 0.05 0.05 82 1012.6
20260906135423 54 188 0.0 0.0 0.00 0.05 0.05 85 1012.2
20260906134920 54 188 0.0 0.0 0.00 0.05 0.05 85 1012.2
20260906134414 54 188 0.0 0.0 0.00 0.05 0.05 85 1012.2
20260906132726 53 20 0.0 0.0 0.00 0.05 0.05 91 1012.6
20260906132222 53 20 0.0 0.0 0.00 0.05 0.05 91 1012.6
20260906131717 53 20 0.0 0.0 0.00 0.05 0.05 91 1012.6
20260906130027 52 247 0.0 0.0 0.00 0.05 0.05 91 1012.6
20260906125524 52 247 0.0 0.0 0.00 0.05 0.05 91 1012.6
20260906125019 52 247 0.0 0.0 0.00 0.05 0.05 91 1012.6
20260906123323 51 304 0.0 0.0 0.00 0.05 0.05 92 1012.9
20260906122823 51 304 0.0 0.0 0.00 0.05 0.05 92 1012.9
20260906122318 51 304 0.0 0.0 0.00 0.05 0.05 92 1012.9
20260906120622 50 270 0.0 0.0 0.00 0.05 0.05 92 1012.6
20260906120119 50 270 0.0 0.0 0.00 0.05 0.05 92 1012.6
20260906115618 50 270 0.0 0.0 0.00 0.05 0.05 92 1012.6
20260906113922 50 196 0.0 0.0 0.00 0.05 0.05 92 1012.9
20260906113420 50 196 0.0 0.0 0.00 0.05 0.05 92 1012.9
20260906112917 50 196 0.0 0.0 0.00 0.05 0.05 92 1012.9
20260906111227 49 211 0.0 0.0 0.00 0.05 0.05 92 1012.9
20260906110722 49 211 0.0 0.0 0.00 0.05 0.05 92 1012.9
20260906110218 49 211 0.0 0.0 0.00 0.05 0.05 92 1012.9
20260906104526 49 198 0.0 0.0 0.00 0.05 0.05 91 1012.6
20260906104021 49 198 0.0 0.0 0.00 0.05 0.05 91 1012.6
20260906103518 49 198 0.0 0.0 0.00 0.05 0.05 91 1012.6
20260906101828 49 147 0.0 0.0 0.14 0.02 0.02 91 1012.9
20260906101323 49 147 0.0 0.0 0.14 0.02 0.02 91 1012.9
20260906100819 49 147 0.0 0.0 0.14 0.02 0.02 91 1012.9
20260906095123 48 128 0.0 0.0 0.00 0.00 0.00 92 1012.9
20260906094622 48 128 0.0 0.0 0.00 0.00 0.00 92 1012.9
20260906094118 48 128 0.0 0.0 0.00 0.00 0.00 92 1012.9
20260906092424 48 149 0.0 0.0 0.00 0.00 0.00 92 1012.9
20260906091920 48 149 0.0 0.0 0.00 0.00 0.00 92 1012.9
20260906091415 48 149 0.0 0.0 0.00 0.00 0.00 92 1012.9
20260906085724 48 257 0.0 0.0 0.00 0.00 0.00 92 1012.9
20260906085223 48 257 0.0 0.0 0.00 0.00 0.00 92 1012.9
20260906084718 48 257 0.0 0.0 0.00 0.00 0.00 92 1012.9
20260906083027 47 81 0.0 0.0 0.00 0.00 0.00 91 1012.6
20260906082523 47 81 0.0 0.0 0.00 0.00 0.00 91 1012.6
20260906082018 47 81 0.0 0.0 0.00 0.00 0.00 91 1012.6
20260906080316 47 174 0.0 0.0 0.00 0.00 0.00 91 1013.3
20260906075816 47 174 0.0 0.0 0.00 0.00 0.00 91 1013.3
20260906075315 47 174 0.0 0.0 0.00 0.00 0.00 91 1013.3
20260906073626 47 307 0.0 0.0 0.00 0.00 0.00 91 1012.9
20260906073121 47 307 0.0 0.0 0.00 0.00 0.00 91 1012.9
20260906072616 47 307 0.0 0.0 0.00 0.00 0.00 91 1012.9
20260906070929 47 260 0.0 0.0 0.00 0.00 0.00 91 1012.9
20260906070419 47 260 0.0 0.0 0.00 0.00 0.00 91 1012.9
20260906065914 47 260 0.0 0.0 0.00 0.00 0.00 91 1012.9
20260906064225 48 207 0.0 0.0 0.00 0.00 0.00 90 1012.9
20260906063719 48 207 0.0 0.0 0.00 0.00 0.00 90 1012.9
20260906063214 48 207 0.0 0.0 0.00 0.00 0.00 90 1012.9
20260906061523 49 168 0.0 0.0 0.00 0.00 0.00 91 1013.3
20260906061022 49 168 0.0 0.0 0.00 0.00 0.00 91 1013.3
20260906060519 49 168 0.0 0.0 0.00 0.00 0.00 91 1013.3
20260906054826 48 177 0.0 0.0 0.00 0.00 0.00 91 1013.3
20260906054321 48 177 0.0 0.0 0.00 0.00 0.00 91 1013.3
20260906053817 48 177 0.0 0.0 0.00 0.00 0.00 91 1013.3
20260906051923 48 204 0.0 0.0 0.00 0.00 0.00 91 1012.9
20260906051418 48 204 0.0 0.0 0.00 0.00 0.00 91 1012.9
20260906050914 49 228 0.0 0.0 0.00 0.00 0.00 91 1012.9
20260906050413 49 228 0.0 0.0 0.00 0.00 0.00 91 1012.9
20260906045423 48 325 0.0 0.0 0.00 0.00 0.00 91 1013.3
20260906044920 48 325 0.0 0.0 0.00 0.00 0.00 91 1013.3
20260906044419 48 325 0.0 0.0 0.00 0.00 0.00 91 1013.3
20260906042721 49 190 0.0 0.0 0.00 0.00 0.00 91 1013.3
20260906042219 49 190 0.0 0.0 0.00 0.00 0.00 91 1013.3
20260906041715 49 190 0.0 0.0 0.00 0.00 0.00 91 1013.3
20260906040028 49 190 0.0 0.0 0.00 0.02 0.02 88 1013.3
20260906035522 49 190 0.0 0.0 0.00 0.02 0.02 88 1013.3
20260906035018 49 190 0.0 0.0 0.00 0.02 0.02 88 1013.3
20260906033328 50 256 0.0 0.0 0.00 0.02 0.02 86 1013.3
20260906032824 50 256 0.0 0.0 0.00 0.02 0.02 86 1013.3
20260906032319 50 256 0.0 0.0 0.00 0.02 0.02 86 1013.3
20260906030624 50 220 0.0 0.0 0.00 0.02 0.02 81 1013.3
20260906030120 50 220 0.0 0.0 0.00 0.02 0.02 81 1013.3
20260906025618 50 220 0.0 0.0 0.00 0.02 0.02 81 1013.3
20260906023922 51 166 0.0 0.0 0.00 0.02 0.02 79 1013.6
20260906023418 51 166 0.0 0.0 0.00 0.02 0.02 79 1013.6
20260906022917 51 166 0.0 0.0 0.00 0.02 0.02 79 1013.6
20260906021228 52 304 0.0 0.0 0.00 0.02 0.02 79 1014.0
20260906020723 52 304 0.0 0.0 0.00 0.02 0.02 79 1014.0
20260906020217 52 304 0.0 0.0 0.00 0.02 0.02 79 1014.0
20260906014525 53 75 0.0 0.0 0.00 0.02 0.02 78 1014.0
20260906014021 53 75 0.0 0.0 0.00 0.02 0.02 78 1014.0
20260906013515 53 75 0.0 0.0 0.00 0.02 0.02 78 1014.0
20260906011826 54 187 0.0 0.0 0.00 0.02 0.02 77 1014.0
20260906011321 54 187 0.0 0.0 0.00 0.02 0.02 77 1014.0
20260906010817 54 187 0.0 0.0 0.00 0.02 0.02 77 1014.0
20260906005121 55 342 0.0 0.0 0.00 0.02 0.02 75 1014.0
20260906004620 55 342 0.0 0.0 0.00 0.02 0.02 75 1014.0
20260906004114 55 342 0.0 0.0 0.00 0.02 0.02 75 1014.0
20260906002425 56 350 0.0 0.0 0.00 0.02 0.02 73 1013.6
20260906001920 56 350 0.0 0.0 0.00 0.02 0.02 73 1013.6
20260906001416 56 350 0.0 0.0 0.00 0.02 0.02 73 1013.6
20260905235726 57 67 0.0 0.0 0.00 0.02 0.02 73 1013.6
20260905235221 57 67 0.0 0.0 0.00 0.02 0.02 73 1013.6
20260905234717 57 67 0.0 0.0 0.00 0.02 0.02 73 1013.6
20260905233027 58 91 0.0 0.0 0.00 0.02 0.02 72 1013.3
20260905232522 58 91 0.0 0.0 0.00 0.02 0.02 72 1013.3
20260905232018 58 91 0.0 0.0 0.00 0.02 0.02 72 1013.3
20260905230321 58 204 0.0 2.0 0.00 0.02 0.02 73 1013.3
20260905225821 58 204 0.0 2.0 0.00 0.02 0.02 73 1013.3
20260905225316 58 204 0.0 2.0 0.00 0.02 0.02 73 1013.3
20260905223622 60 82 0.0 0.0 0.00 0.02 0.02 70 1012.9
20260905223118 60 82 0.0 0.0 0.00 0.02 0.02 70 1012.9
20260905222618 60 82 0.0 0.0 0.00 0.02 0.02 70 1012.9
20260905220926 60 120 0.0 2.0 0.00 0.02 0.02 69 1012.6
20260905220422 60 120 0.0 2.0 0.00 0.02 0.02 69 1012.6
20260905215920 60 120 0.0 2.0 0.00 0.02 0.02 69 1012.6
20260905214228 62 190 0.0 0.0 0.00 0.02 0.02 66 1012.2
20260905213723 62 190 0.0 0.0 0.00 0.02 0.02 66 1012.2
20260905213219 62 190 0.0 0.0 0.00 0.02 0.02 66 1012.2
20260905211529 64 351 0.0 0.0 0.00 0.02 0.02 64 1011.9
20260905211025 64 351 0.0 0.0 0.00 0.02 0.02 64 1011.9
20260905210520 64 351 0.0 0.0 0.00 0.02 0.02 64 1011.9
20260905204821 64 20 0.0 0.0 0.00 0.02 0.02 63 1011.9
20260905204317 64 20 0.0 0.0 0.00 0.02 0.02 63 1011.9
20260905203815 64 20 0.0 0.0 0.00 0.02 0.02 63 1011.9